Location: Wanzleben
(52.0609°N, 11.4408°E)
Time: 10:47:39
(UTC+00:00)

Cosmos 1733 - Pass Details

Date: 18 September 2020
Orbit: 504 x 522 km, 82.5° (Epoch: 31 October)

Event Time Altitude Azimuth Distance (km) Brightness Sun altitude
Exits shadow 19:17:26 26° 61° (ENE) 1,051 4.4 -18.0°
Drops below altitude 10° 19:19:47 10° 29° (NNE) 1,761 5.9 -18.3°
Sets 19:22:05 0° 19° (NNE) 2,651 6.9 -18.6°
